Vorticity
9 9 9 9 9 10 9 9 9 9 10 9 9 9 9 8 8 8 10 8 7 8 7 7 8 8 8 8 8 8 8 8 8 8 8 7 8 8 9 9 9 9 8 8 8 8 8 9 9 9 9 10 10 10 11 11 10 10 9 9 8 7 7 6 6 6 6 6 7 7 7 8 8 8 9 10 10 10 10 10 10 11 11 12 12 11
8 8 9 8 8 8 9 9 9 9 9 9 8 8 9 8 7 8 8 7 8 8 7 8 8 8 8 8 8 8 8 8 8 8 8 8 8 8 8 9 10 10 10 10 10 10 10 11 11 11 11 10 10 9 8 7 6 6 5 5 5 5 5 6 7 7 8 8 9 10 10 10 10 10 9 10 10 10 11 11 11 12 12 13 13 12
8 8 7 8 8 7 8 7 8 8 7 7 8 8 8 7 7 8 7 7 9 7 7 8 9 8 8 8 8 9 9 10 11 12 12 12 12 12 11 11 11 11 11 11 11 10 9 9 8 7 6 6 5 4 3 3 4 4 5 6 7 8 9 10 11 11 12 12 12 12 12 13 13 13 12 12 12 12 13 13 13 13 13 12 12 12
7 7 6 6 7 6 6 7 7 7 7 7 6 7 7 6 7 8 7 7 7 6 7 8 8 7 7 8 8 9 10 11 11 12 12 12 12 11 10 9 9 8 8 7 7 6 5 4 4 4 4 4 4 5 6 7 8 10 10 11 12 12 13 13 14 14 14 14 14 14 13 13 13 13 13 12 12 11 10 10 11 10 10 9 9 9
6 7 7 7 6 7 7 7 6 6 6 6 5 4 6 6 5 6 7 7 6 5 6 9 9 6 5 8 9 8 9 9 9 9 9 9 9 8 8 7 7 6 5 5 4 4 4 5 6 7 7 8 9 10 11 12 12 13 13 13 13 13 13 13 13 13 13 12 12 11 11 10 10 10 9 9 8 9 8 7 6 6 6 6 6 6
6 6 6 6 7 6 6 5 5 4 4 5 5 5 5 6 7 7 7 8 8 7 6 7 9 10 8 6 5 7 8 8 8 8 7 7 7 7 7 7 7 7 8 8 9 10 10 11 11 11 11 11 11 12 12 12 12 11 12 12 12 12 11 11 11 11 10 10 9 8 8 8 8 8 8 8 8 8 8 9 8 8 8 7 7 7
6 6 6 5 4 4 4 4 5 5 7 9 10 11 12 13 13 12 12 12 13 12 11 9 8 14 16 10 6 8 9 8 8 9 11 11 11 11 11 11 12 12 13 13 13 13 13 12 12 11 11 11 11 12 12 12 12 12 12 11 12 12 11 10 9 8 8 8 8 8 7 7 7 7 8 8 9 8 7 7 7 7 8 7 7 7
4 3 3 4 4 7 9 12 14 16 17 18 18 19 19 17 17 17 17 17 16 15 16 17 13 15 19 16 14 12 11 14 16 17 16 14 14 14 14 14 13 12 12 12 11 11 11 11 12 12 13 13 13 14 13 13 13 13 12 11 11 10 10 9 8 8 7 7 8 8 7 8 8 7 7 6 6 6 6 5 5 5 6 6 6 7
6 7 10 14 16 19 20 20 21 20 19 18 16 16 15 14 14 13 12 13 14 13 15 18 15 14 16 16 15 14 13 15 16 15 14 13 13 12 11 11 10 10 10 11 11 12 13 14 15 15 15 15 15 15 14 14 13 12 12 11 10 8 8 8 7 7 6 6 5 4 4 4 4 4 5 5 5 6 7 8 7 7 7 7 7 7
18 20 21 22 21 20 19 18 16 16 16 14 14 14 13 14 14 13 15 15 14 14 13 15 15 13 13 14 13 14 15 14 11 10 11 11 10 10 10 11 12 13 13 14 14 14 15 15 14 14 14 13 12 12 11 10 9 8 7 7 7 5 4 4 5 5 5 6 6 7 7 7 8 8 8 8 8 8 8 8 8 8 8 8 7 8
20 19 18 17 17 16 15 15 14 14 14 13 13 13 12 13 12 10 11 10 11 15 13 10 11 11 10 10 9 10 11 9 8 7 7 9 11 13 14 16 16 16 16 15 15 15 14 14 13 12 11 11 11 10 9 9 8 8 7 7 8 9 9 10 10 11 11 11 11 10 10 9 9 8 8 7 7 7 7 6 6 6 6 6 7 6
14 14 13 12 13 12 11 10 10 9 9 10 10 10 10 11 10 12 14 13 16 18 11 7 8 9 7 9 11 10 9 11 14 15 16 17 19 19 19 18 17 17 17 17 17 16 16 14 13 12 12 11 12 11 11 11 10 10 10 9 9 8 9 9 8 8 7 7 7 6 6 5 5 5 5 4 4 4 4 4 5 5 5 5 5 5
13 13 12 12 12 11 10 11 11 11 11 11 11 12 13 11 12 15 15 15 17 12 7 10 14 14 14 18 24 25 22 23 23 22 20 18 16 16 15 14 13 13 12 11 10 9 8 8 7 7 7 7 7 6 6 6 6 6 6 5 5 5 4 5 5 5 6 6 6 6 6 6 7 7 7 7 6 6 6 6 6 6 6 6 6 7
13 14 13 13 12 11 12 13 13 14 13 14 16 16 17 18 18 16 12 13 13 7 8 14 15 16 17 18 18 17 14 12 11 10 11 9 8 8 7 7 6 5 5 4 4 4 5 5 6 6 6 6 6 6 6 6 6 6 6 6 6 6 6 7 7 7 7 7 7 7 7 7 7 7 7 7 7 7 7 7 6 6 6 6 6 6
12 12 13 14 15 15 16 17 16 16 15 16 15 14 16 18 18 18 17 16 13 11 13 13 11 11 12 10 7 5 5 7 7 7 7 7 7 6 6 7 7 7 8 8 9 9 9 9 9 9 8 8 8 8 8 8 8 7 8 8 7 7 6 6 6 5 5 5 5 5 5 5 5 5 5 6 6 6 6 6 6 7 7 7 7 7
15 16 16 16 15 14 12 12 12 13 14 14 12 12 14 13 12 14 13 12 13 15 14 15 16 14 10 11 13 13 14 13 11 11 10 10 11 11 11 11 11 11 10 10 10 9 9 9 8 8 8 7 7 7 6 6 5 5 5 5 5 4 4 5 5 5 5 5 5 6 6 6 7 7 7 7 7 8 8 8 8 8 8 8 8 8
13 13 13 13 14 17 19 21 21 22 23 22 20 19 16 14 13 13 12 10 11 13 15 18 17 10 8 12 12 10 10 9 10 11 11 11 11 11 11 9 9 8 7 7 7 6 6 5 6 5 5 5 4 5 5 5 5 6 6 6 7 7 7 8 8 7 8 8 8 8 8 8 8 8 9 9 9 9 9 9 8 8 7 7 7 7
17 19 23 26 27 29 29 26 24 24 23 22 22 21 19 17 15 14 14 12 11 14 18 15 9 9 14 13 6 3 5 7 8 9 7 7 7 6 6 5 5 5 4 4 4 4 4 4 5 6 6 6 6 7 7 8 8 8 8 8 8 7 8 7 7 8 8 8 8 8 8 8 9 8 8 8 8 8 7 7 7 7 7 7 7 7
30 27 25 23 20 15 13 10 8 9 10 12 14 14 14 15 15 15 14 14 16 16 13 9 9 12 9 4 4 7 7 7 7 6 5 5 4 4 4 4 5 6 6 7 7 7 8 7 7 8 8 8 8 8 8 7 7 7 7 7 7 7 8 8 8 8 8 8 8 8 9 8 8 8 8 8 8 8 8 8 8 8 8 9 10 11
15 12 7 4 4 3 2 3 2 2 4 7 9 10 11 12 13 14 15 17 18 13 9 10 11 7 3 5 10 10 8 8 7 7 7 6 6 7 7 8 8 8 8 8 8 8 8 9 8 8 8 8 8 8 8 8 9 9 10 10 10 10 10 10 10 10 10 10 9 9 9 8 8 8 7 7 7 8 9 10 11 12 14 16 17 19
2 4 3 1 3 3 2 3 2 1 3 4 5 7 9 11 11 13 18 21 16 11 12 14 13 12 11 11 9 7 8 9 8 9 10 9 9 9 9 9 8 8 8 8 9 9 9 9 8 8 9 9 10 10 10 10 10 10 10 10 10 9 9 9 8 8 8 7 7 7 7 7 8 9 10 12 14 17 19 20 21 22 22 22 22 21
3 4 5 3 4 4 3 5 4 2 3 3 3 3 4 7 9 13 19 18 14 15 16 16 14 12 10 8 9 11 12 11 11 11 12 12 12 11 11 11 10 10 10 10 10 10 10 11 11 11 11 11 11 10 9 9 8 7 7 6 6 6 6 6 6 7 8 10 12 14 16 19 21 23 25 26 26 25 24 23 22 21 19 18 16 15
5 5 8 7 6 6 5 5 5 4 3 3 3 3 3 5 9 14 17 16 16 20 17 13 11 8 9 14 15 13 13 13 13 13 12 12 12 11 11 11 11 11 11 11 11 11 11 11 11 10 9 8 8 8 8 8 8 9 10 11 12 13 15 16 18 20 22 23 25 26 27 27 26 24 22 20 19 17 15 14 13 12 11 10 9 9
6 5 8 8 6 7 6 7 7 5 5 4 3 4 4 5 9 13 15 15 16 18 14 13 14 12 13 14 12 12 13 11 10 11 10 10 9 9 11 11 11 12 11 12 12 11 11 10 10 11 11 13 14 15 16 17 18 20 21 22 23 24 26 26 27 27 26 25 23 20 18 16 15 14 13 13 12 11 10 9 9 8 8 8 8 8
7 4 7 7 5 5 4 3 4 4 4 4 3 4 4 5 9 11 13 14 15 15 14 14 14 11 10 10 9 9 8 7 8 9 9 9 9 10 12 12 12 13 13 13 13 14 15 15 17 19 19 20 21 21 21 21 21 22 22 23 24 23 22 21 19 18 15 13 12 11 12 13 13 12 11 9 8 7 7 7 8 9 10 11 11 11
8 4 5 6 4 4 3 3 5 5 5 4 4 4 4 5 8 11 13 14 13 12 14 12 9 8 9 11 10 8 8 10 11 11 11 12 13 13 13 14 14 14 15 16 17 18 19 19 19 19 19 18 18 18 18 18 18 18 18 18 17 15 13 12 11 11 11 12 13 14 14 12 9 6 4 4 5 6 8 9 10 12 12 13 15 16
8 6 6 7 7 7 6 6 7 7 6 6 5 5 4 5 9 10 13 13 11 12 14 10 7 8 9 10 12 13 14 14 13 13 14 14 14 15 15 15 15 15 16 17 18 18 17 16 16 15 15 15 16 16 16 16 16 15 14 12 11 10 10 11 12 14 15 15 13 10 7 4 2 2 3 5 7 8 9 9 11 13 16 19 22 25
8 7 6 7 9 10 9 9 10 10 9 7 7 6 5 6 9 9 11 13 13 14 13 9 7 9 10 11 13 14 14 14 15 15 15 15 15 15 15 15 15 16 16 16 15 15 14 14 13 13 13 14 15 16 16 15 14 12 11 11 11 11 12 13 14 14 12 10 6 3 2 2 3 5 7 9 9 10 11 15 19 23 26 27 27 27
8 7 6 8 10 9 9 11 13 12 11 9 8 6 6 7 9 8 9 13 17 17 13 9 9 9 10 12 13 13 14 15 16 16 16 18 18 17 16 17 16 16 15 14 13 13 13 13 13 13 13 14 15 15 15 14 13 12 11 11 11 10 10 10 11 10 8 5 4 4 5 6 8 9 10 11 13 16 21 25 27 28 26 25 23 22
8 7 6 8 9 8 9 11 13 13 12 11 9 7 7 7 7 8 9 10 15 19 14 9 9 7 7 10 11 12 14 15 16 17 18 18 18 18 18 18 18 17 16 15 14 13 13 12 12 13 13 14 13 13 13 13 12 12 12 11 9 8 8 8 7 6 6 6 7 8 9 10 11 12 14 17 21 26 28 27 25 22 20 20 21 22
7 7 7 7 7 7 9 10 11 12 11 10 10 8 8 8 7 10 11 7 10 18 16 10 8 7 6 7 9 10 12 13 16 16 16 18 19 17 17 18 19 20 19 19 17 16 15 14 14 14 14 13 13 12 11 11 11 12 12 12 11 9 7 6 6 7 8 9 10 10 11 12 13 16 21 25 28 26 23 20 19 20 22 23 23 21
6 7 8 8 6 5 7 8 10 13 11 11 10 8 8 8 7 11 13 6 6 14 16 11 8 7 7 7 7 8 9 11 13 14 16 19 17 15 17 19 19 20 21 21 19 18 18 17 16 15 14 13 13 11 11 11 11 12 13 12 10 8 7 7 9 10 10 11 10 10 11 14 18 23 26 25 22 19 17 18 21 22 22 19 17 19
7 7 9 10 9 7 6 6 8 10 11 11 10 7 8 8 7 12 14 7 6 12 12 10 8 6 5 5 5 6 7 9 11 12 15 18 17 18 19 17 17 19 20 22 23 21 20 18 17 15 14 13 13 12 12 12 13 13 12 9 7 7 9 11 12 12 11 10 11 13 16 21 25 26 23 19 16 17 19 22 21 18 16 17 23 31
7 7 9 10 10 9 8 7 8 9 11 12 9 7 9 7 6 13 15 7 8 13 10 9 10 6 5 6 5 5 6 7 8 10 13 16 16 18 19 16 16 17 17 19 22 21 19 18 16 15 14 14 13 13 13 13 12 11 8 7 9 12 13 13 12 11 11 11 14 18 22 26 25 21 17 16 18 21 22 19 15 15 21 30 37 38
7 7 9 11 10 10 10 8 8 9 10 10 8 8 10 6 5 13 16 8 8 13 11 10 10 7 6 7 6 5 6 6 7 9 11 13 15 17 19 17 16 16 15 16 17 17 18 16 15 15 14 13 13 13 13 11 8 7 8 11 13 13 12 11 10 10 11 14 18 22 25 23 18 15 15 18 21 21 17 14 17 27 36 39 36 29
7 6 8 11 9 9 10 9 7 9 9 8 9 10 9 6 3 8 14 11 8 11 12 11 10 9 8 8 6 6 7 7 5 7 10 12 13 16 17 17 18 17 16 15 15 16 16 14 14 14 13 14 14 12 10 9 8 10 12 14 13 12 10 10 10 11 14 18 22 24 22 17 14 15 18 20 19 15 13 20 32 39 37 30 25 22
7 6 8 10 10 10 11 9 7 7 7 7 10 10 9 8 4 2 8 12 9 9 13 12 11 10 8 8 8 7 7 8 6 6 10 12 12 13 14 16 19 19 18 17 17 16 16 15 15 15 14 14 13 11 9 9 11 13 14 13 12 11 10 10 11 13 18 22 25 22 16 13 15 18 20 19 14 12 19 33 38 33 26 23 22 20
7 7 8 10 9 9 11 9 7 7 7 7 9 10 9 9 7 3 5 9 8 9 13 13 12 11 9 8 9 7 7 9 7 5 9 12 12 12 12 14 17 20 21 21 19 17 17 16 15 14 14 13 11 10 11 12 13 14 13 13 12 10 11 11 12 17 22 25 22 16 13 15 18 19 19 14 11 17 31 37 31 23 22 23 19 14
7 8 9 10 10 10 11 10 7 6 7 6 8 10 10 9 8 4 3 7 8 8 11 12 12 13 10 8 9 8 7 8 8 7 8 11 12 11 10 11 13 17 21 22 22 20 17 15 15 14 13 12 11 11 12 13 14 14 13 12 11 10 12 12 15 21 25 22 16 12 14 18 19 18 15 10 13 27 36 29 22 22 22 18 14 12
7 9 9 9 9 10 10 10 9 7 6 6 8 10 10 10 9 5 3 6 8 8 8 10 13 14 12 9 8 9 8 8 9 8 8 10 12 10 9 9 9 11 17 22 25 24 19 15 14 13 12 12 11 12 13 13 14 13 12 11 11 11 12 13 19 25 24 17 12 13 17 19 18 16 11 8 18 32 31 22 21 23 18 13 13 13
7 9 9 8 9 10 10 10 10 8 6 6 8 9 10 9 9 8 6 5 6 7 8 9 12 14 13 9 8 9 9 8 8 8 8 10 11 10 10 10 8 7 11 18 25 27 24 18 14 12 12 12 11 12 14 14 14 12 11 10 10 11 12 15 22 25 19 13 12 16 20 19 16 14 8 9 22 32 25 18 20 19 13 12 15 15
6 9 10 9 8 10 10 9 8 9 7 7 7 9 11 11 9 8 8 5 5 7 8 8 11 14 13 10 8 9 9 9 9 8 8 9 10 11 11 11 9 7 8 14 21 26 26 23 17 13 12 11 12 14 15 15 14 12 11 11 10 11 13 18 24 23 15 11 13 18 20 18 14 12 7 9 24 31 22 17 19 16 13 14 15 14
7 9 10 9 8 9 10 9 8 9 9 9 7 7 9 12 10 9 9 7 5 6 7 8 11 14 14 11 9 9 9 9 9 8 7 9 10 10 11 12 12 8 7 11 18 22 25 23 18 14 11 11 13 15 15 14 13 11 11 11 10 12 15 21 25 21 12 11 15 19 21 18 14 10 6 9 23 30 21 15 17 16 14 15 14 13
7 9 10 9 9 9 10 9 8 8 8 9 9 6 7 10 11 9 8 8 7 6 7 8 9 12 13 13 11 10 9 9 9 7 7 7 8 8 9 12 14 10 6 10 17 21 23 22 19 15 12 11 13 14 14 13 12 11 11 11 11 13 17 23 25 18 10 11 16 20 21 18 13 10 5 7 21 29 21 15 17 17 15 15 13 12
7 10 10 9 9 10 10 9 8 7 6 8 9 8 7 9 11 10 8 8 8 8 7 7 8 10 12 13 13 11 9 9 9 8 6 6 7 8 8 10 13 13 8 8 13 19 22 23 21 17 14 12 13 14 14 13 12 12 11 11 12 13 19 25 24 15 9 12 17 20 21 18 14 11 5 5 17 27 22 15 16 18 17 14 12 11
8 10 10 9 8 9 9 8 8 7 6 7 9 10 8 8 10 11 9 8 8 9 8 7 8 10 11 13 14 12 10 9 9 7 6 5 5 6 7 8 11 13 11 8 10 16 20 22 23 20 15 13 12 13 13 12 12 12 12 12 12 13 20 26 23 14 9 12 17 20 21 18 15 11 6 4 13 25 25 16 15 18 17 14 12 11
9 10 10 9 8 8 9 9 8 8 7 7 9 10 8 7 10 11 10 9 8 9 10 8 7 9 11 13 15 13 10 8 8 7 6 6 5 5 6 8 9 11 12 10 9 13 17 21 23 21 17 14 12 12 13 12 12 12 12 12 12 14 20 26 22 13 9 12 17 20 21 19 16 12 8 4 9 21 26 19 15 17 17 14 12 10
9 10 9 10 10 8 9 10 8 7 7 6 7 10 8 6 8 10 11 10 8 9 10 9 8 10 11 12 14 14 11 9 8 7 6 6 5 4 5 7 8 9 11 11 10 11 15 20 22 21 18 15 12 12 13 12 12 12 12 12 12 13 20 26 22 13 9 11 17 20 21 20 17 13 10 6 6 17 26 22 15 15 16 14 13 11
10 10 9 9 11 9 8 10 8 7 8 6 6 10 9 6 6 10 11 10 8 9 10 9 9 10 12 12 14 14 12 9 8 7 6 6 5 4 4 7 8 8 9 11 11 11 14 19 22 21 19 16 12 12 12 12 12 12 12 13 12 12 19 27 24 14 9 10 15 19 21 21 19 15 12 7 5 13 23 23 16 13 14 14 13 11
9 10 9 9 12 10 8 9 9 7 9 8 6 9 10 8 6 8 11 11 8 8 10 10 9 10 11 13 14 15 13 10 9 8 6 6 5 5 4 6 8 7 7 9 11 11 13 18 22 22 20 17 13 11 12 12 12 13 12 12 12 12 17 25 25 17 10 9 14 18 21 21 20 17 13 10 6 9 18 24 19 12 12 12 11 10
10 11 10 9 11 12 9 9 8 7 8 8 6 7 9 9 7 7 10 11 9 7 10 11 10 10 10 11 14 16 14 11 9 8 7 6 6 5 4 5 7 8 7 8 10 10 11 16 22 23 20 17 13 11 12 12 12 13 12 12 13 12 14 22 26 20 12 8 11 16 19 21 21 19 16 12 8 6 13 22 22 15 10 10 10 10
Height
5728 5727 5725 5724 5722 5720 5719 5717 5716 5714 5712 5710 5708 5706 5704 5701 5698 5698 5696 5694 5691 5688 5686 5686 5684 5682 5681 5679 5678 5676 5675 5673 5671 5669 5668 5666 5664 5662 5660 5658 5656 5653 5651 5650 5648 5646 5644 5643 5641 5639 5638 5636 5634 5633 5631 5629 5628 5626 5624 5623 5621 5619 5617 5616 5614 5612 5610 5608 5607 5605 5604 5602 5601 5600 5598 5596 5596 5594 5593 5593 5591 5590 5590 5589 5588 5587
5725 5723 5722 5720 5719 5717 5715 5713 5711 5710 5707 5705 5703 5701 5699 5697 5694 5694 5692 5689 5686 5683 5681 5681 5679 5676 5675 5674 5672 5671 5669 5667 5665 5664 5661 5659 5657 5655 5653 5651 5649 5647 5645 5643 5641 5639 5637 5636 5634 5632 5631 5629 5627 5626 5624 5622 5620 5619 5617 5615 5613 5611 5609 5607 5605 5604 5602 5600 5598 5596 5595 5593 5591 5591 5589 5587 5586 5585 5583 5583 5582 5581 5580 5579 5578 5578
5721 5720 5718 5716 5715 5713 5711 5709 5707 5705 5704 5701 5699 5697 5694 5692 5690 5688 5687 5685 5681 5678 5677 5676 5673 5671 5670 5668 5667 5665 5663 5662 5659 5657 5655 5653 5651 5648 5646 5644 5642 5640 5638 5636 5634 5632 5630 5629 5627 5625 5624 5622 5620 5618 5617 5615 5613 5611 5609 5607 5605 5603 5601 5599 5597 5595 5593 5591 5589 5587 5586 5584 5582 5581 5580 5578 5577 5576 5574 5573 5572 5571 5570 5569 5569 5568
5717 5716 5715 5713 5711 5709 5707 5705 5703 5701 5699 5697 5695 5693 5689 5687 5685 5682 5681 5680 5676 5673 5672 5670 5667 5665 5664 5663 5661 5659 5657 5655 5653 5651 5649 5647 5644 5642 5639 5637 5635 5633 5631 5629 5627 5625 5623 5622 5620 5618 5616 5614 5613 5611 5609 5607 5605 5603 5600 5598 5596 5594 5592 5590 5588 5586 5584 5582 5581 5579 5577 5575 5574 5572 5571 5569 5568 5566 5565 5564 5563 5562 5561 5560 5559 5558
5714 5712 5711 5709 5707 5705 5703 5701 5699 5697 5695 5692 5691 5689 5685 5682 5681 5678 5675 5674 5671 5669 5668 5664 5660 5658 5659 5657 5655 5654 5651 5649 5647 5645 5642 5640 5638 5635 5633 5631 5628 5626 5624 5622 5620 5618 5616 5614 5612 5610 5608 5606 5604 5602 5600 5598 5596 5594 5592 5590 5588 5586 5584 5582 5580 5577 5576 5574 5572 5570 5568 5567 5565 5563 5562 5561 5559 5557 5556 5555 5553 5552 5551 5550 5548 5548
5710 5708 5707 5705 5702 5700 5698 5696 5694 5692 5690 5687 5685 5684 5680 5677 5675 5673 5670 5667 5664 5662 5663 5660 5653 5650 5652 5651 5649 5648 5645 5642 5640 5637 5635 5633 5631 5628 5626 5624 5621 5619 5617 5615 5613 5611 5608 5606 5604 5602 5600 5598 5596 5594 5592 5590 5588 5586 5584 5581 5579 5577 5575 5573 5571 5569 5567 5565 5564 5562 5560 5558 5556 5554 5553 5551 5550 5548 5546 5545 5543 5542 5540 5539 5538 5537
5706 5705 5702 5700 5698 5696 5693 5691 5689 5687 5685 5682 5679 5677 5675 5672 5670 5667 5665 5662 5658 5655 5656 5655 5649 5643 5643 5643 5643 5642 5638 5636 5633 5631 5628 5626 5623 5621 5618 5616 5614 5611 5609 5607 5605 5602 5600 5598 5596 5594 5592 5590 5588 5587 5584 5582 5580 5578 5576 5574 5571 5569 5567 5565 5563 5561 5559 5556 5554 5553 5551 5549 5546 5545 5543 5541 5539 5537 5536 5534 5533 5531 5529 5528 5527 5526
5702 5700 5698 5696 5693 5690 5688 5686 5683 5681 5679 5676 5674 5672 5669 5667 5664 5662 5659 5657 5654 5650 5649 5648 5645 5640 5635 5635 5636 5634 5631 5629 5627 5624 5621 5619 5616 5613 5611 5608 5606 5604 5601 5599 5597 5595 5593 5590 5588 5586 5584 5583 5581 5579 5577 5574 5572 5570 5568 5566 5564 5561 5559 5557 5554 5552 5550 5547 5545 5543 5541 5539 5537 5535 5533 5531 5529 5527 5525 5524 5522 5520 5519 5517 5516 5515
5697 5695 5693 5690 5688 5685 5682 5680 5677 5675 5673 5671 5669 5666 5664 5662 5659 5657 5654 5652 5649 5646 5644 5642 5640 5636 5629 5628 5629 5627 5624 5623 5620 5618 5614 5611 5609 5606 5604 5601 5599 5597 5594 5592 5590 5588 5586 5583 5581 5579 5577 5575 5573 5571 5568 5566 5564 5562 5559 5557 5555 5552 5550 5547 5545 5543 5540 5538 5536 5533 5531 5529 5527 5525 5523 5521 5519 5517 5516 5514 5512 5510 5509 5507 5506 5505
5692 5690 5688 5685 5683 5680 5678 5675 5673 5671 5668 5666 5664 5662 5660 5657 5655 5652 5649 5647 5644 5641 5640 5637 5634 5631 5625 5621 5623 5621 5619 5616 5613 5611 5608 5605 5602 5600 5597 5595 5592 5590 5588 5586 5583 5581 5578 5576 5573 5571 5569 5567 5564 5562 5560 5557 5555 5553 5550 5548 5545 5543 5540 5538 5536 5533 5531 5529 5526 5524 5522 5520 5518 5516 5514 5512 5510 5508 5506 5504 5503 5501 5499 5497 5496 5494
5687 5685 5683 5681 5678 5676 5674 5671 5669 5667 5664 5662 5660 5657 5655 5653 5650 5648 5645 5643 5640 5636 5635 5633 5629 5626 5621 5616 5617 5617 5613 5609 5606 5605 5602 5599 5596 5594 5591 5589 5586 5584 5581 5579 5576 5573 5571 5568 5566 5563 5561 5559 5556 5554 5551 5549 5547 5544 5542 5539 5536 5534 5532 5529 5527 5525 5522 5520 5517 5515 5513 5511 5509 5507 5505 5503 5500 5498 5496 5494 5492 5490 5488 5486 5485 5483
5684 5682 5680 5677 5675 5673 5670 5668 5666 5663 5661 5658 5655 5653 5650 5648 5645 5643 5640 5638 5636 5632 5629 5628 5625 5622 5616 5611 5612 5612 5608 5603 5600 5598 5596 5593 5590 5588 5585 5582 5580 5577 5574 5572 5569 5566 5564 5561 5558 5556 5553 5551 5549 5547 5544 5542 5539 5537 5534 5532 5529 5526 5524 5521 5518 5516 5513 5510 5508 5506 5503 5501 5499 5496 5494 5492 5490 5487 5485 5483 5481 5479 5477 5474 5473 5471
5682 5679 5677 5674 5672 5669 5667 5665 5662 5660 5657 5654 5652 5649 5646 5644 5641 5640 5637 5634 5633 5628 5624 5624 5622 5618 5613 5609 5608 5606 5602 5598 5595 5592 5590 5587 5585 5581 5579 5576 5573 5571 5568 5566 5563 5560 5558 5555 5552 5550 5547 5545 5542 5540 5537 5535 5532 5529 5526 5524 5521 5518 5515 5512 5509 5507 5504 5501 5498 5496 5493 5491 5488 5486 5483 5481 5479 5476 5474 5472 5470 5468 5465 5463 5461 5458
5678 5676 5673 5671 5669 5667 5664 5662 5659 5656 5654 5651 5649 5646 5643 5640 5637 5636 5634 5631 5629 5625 5621 5620 5617 5613 5609 5607 5604 5601 5597 5594 5590 5587 5585 5582 5579 5576 5573 5571 5568 5565 5562 5560 5557 5554 5551 5548 5545 5543 5540 5538 5535 5532 5529 5527 5524 5521 5518 5515 5512 5509 5506 5503 5501 5498 5495 5492 5489 5486 5483 5481 5478 5475 5473 5470 5468 5465 5462 5460 5458 5455 5453 5451 5449 5446
5675 5673 5670 5668 5666 5664 5661 5658 5656 5653 5651 5649 5646 5643 5641 5637 5634 5632 5630 5626 5624 5621 5617 5615 5613 5609 5604 5602 5600 5596 5593 5589 5586 5583 5580 5577 5574 5571 5568 5565 5562 5559 5556 5553 5551 5548 5545 5542 5539 5536 5533 5530 5527 5524 5521 5518 5515 5512 5509 5506 5503 5500 5497 5494 5491 5488 5485 5482 5479 5476 5473 5471 5468 5465 5462 5459 5456 5453 5450 5448 5445 5442 5439 5437 5435 5433
5672 5670 5667 5665 5663 5661 5659 5656 5654 5651 5648 5646 5643 5641 5639 5635 5632 5629 5627 5623 5619 5616 5613 5609 5607 5604 5600 5598 5595 5591 5588 5585 5581 5578 5575 5572 5568 5565 5562 5559 5556 5553 5550 5547 5544 5541 5538 5535 5531 5528 5525 5522 5519 5516 5513 5509 5506 5503 5499 5496 5493 5490 5487 5484 5481 5478 5474 5471 5468 5465 5462 5459 5456 5453 5450 5447 5443 5440 5437 5434 5431 5429 5426 5423 5421 5419
5670 5668 5665 5663 5661 5659 5657 5654 5651 5649 5646 5644 5641 5639 5636 5633 5630 5626 5623 5620 5616 5612 5609 5605 5601 5598 5596 5594 5591 5587 5583 5580 5577 5573 5570 5566 5563 5560 5556 5553 5549 5546 5543 5540 5537 5534 5531 5527 5523 5520 5517 5514 5511 5507 5504 5500 5497 5493 5490 5486 5483 5480 5476 5473 5470 5467 5463 5460 5457 5454 5450 5447 5444 5441 5437 5434 5431 5427 5424 5421 5418 5415 5412 5409 5407 5404
5669 5667 5664 5662 5659 5657 5655 5652 5649 5647 5645 5642 5639 5636 5633 5630 5627 5622 5619 5616 5613 5610 5607 5603 5598 5594 5591 5589 5586 5583 5579 5575 5572 5568 5565 5561 5558 5555 5551 5547 5544 5540 5537 5533 5530 5526 5523 5520 5516 5512 5508 5505 5502 5498 5494 5491 5487 5483 5479 5476 5472 5469 5466 5462 5459 5455 5452 5448 5445 5441 5438 5434 5431 5428 5424 5421 5417 5414 5410 5407 5403 5400 5398 5394 5391 5389
5667 5665 5663 5660 5658 5655 5653 5651 5648 5646 5643 5640 5637 5634 5631 5627 5624 5620 5616 5612 5608 5605 5602 5600 5596 5590 5587 5585 5581 5577 5574 5570 5567 5563 5560 5556 5552 5549 5545 5542 5538 5534 5530 5526 5522 5518 5515 5512 5508 5503 5500 5496 5493 5489 5485 5481 5477 5473 5469 5465 5462 5458 5455 5451 5447 5444 5440 5436 5433 5429 5425 5422 5418 5414 5411 5407 5403 5399 5395 5392 5388 5385 5382 5379 5375 5372
5667 5665 5662 5660 5658 5656 5653 5650 5648 5645 5642 5640 5636 5633 5630 5626 5622 5619 5615 5611 5606 5602 5597 5595 5592 5587 5583 5580 5576 5572 5569 5565 5561 5558 5554 5551 5547 5543 5539 5535 5531 5527 5523 5519 5515 5510 5506 5503 5499 5495 5491 5487 5483 5480 5475 5471 5467 5462 5458 5454 5451 5447 5444 5440 5436 5432 5428 5424 5420 5416 5412 5409 5405 5401 5397 5393 5388 5384 5380 5376 5373 5369 5366 5363 5359 5355
5667 5665 5663 5660 5658 5655 5652 5650 5647 5644 5640 5637 5634 5631 5628 5624 5620 5616 5612 5608 5603 5599 5594 5589 5586 5583 5579 5576 5572 5568 5564 5560 5556 5552 5548 5545 5541 5537 5532 5528 5524 5519 5515 5510 5506 5502 5497 5494 5489 5485 5481 5477 5473 5469 5465 5461 5456 5452 5447 5443 5440 5436 5432 5428 5424 5420 5416 5412 5408 5404 5400 5396 5392 5387 5383 5379 5374 5370 5366 5361 5358 5354 5350 5347 5343 5339
5667 5665 5663 5660 5657 5654 5651 5648 5645 5642 5638 5634 5630 5627 5623 5620 5616 5612 5608 5605 5600 5596 5591 5585 5581 5577 5575 5572 5568 5564 5560 5555 5551 5547 5543 5538 5534 5530 5526 5521 5517 5512 5507 5503 5498 5493 5489 5484 5480 5475 5471 5467 5463 5459 5455 5450 5446 5441 5437 5433 5429 5425 5421 5417 5413 5408 5404 5400 5396 5391 5387 5383 5378 5374 5370 5366 5361 5356 5352 5348 5344 5340 5336 5333 5329 5325
5667 5665 5662 5659 5656 5654 5651 5647 5644 5640 5636 5633 5629 5625 5621 5617 5613 5609 5605 5601 5597 5593 5588 5583 5578 5573 5570 5567 5563 5559 5555 5551 5546 5542 5538 5533 5528 5524 5519 5514 5509 5505 5500 5495 5490 5485 5480 5475 5471 5466 5462 5457 5453 5449 5444 5440 5435 5430 5425 5421 5418 5414 5409 5404 5400 5396 5392 5388 5383 5379 5375 5370 5366 5362 5358 5353 5349 5344 5339 5335 5331 5327 5323 5319 5315 5311
5667 5664 5661 5658 5655 5652 5648 5645 5642 5638 5634 5630 5626 5623 5619 5615 5610 5606 5601 5597 5592 5588 5584 5580 5575 5570 5566 5563 5559 5555 5550 5546 5541 5537 5532 5527 5522 5517 5512 5507 5502 5497 5491 5487 5482 5477 5472 5467 5462 5457 5452 5448 5443 5439 5434 5429 5424 5419 5414 5410 5406 5402 5398 5393 5389 5385 5380 5376 5372 5368 5363 5359 5355 5351 5346 5342 5337 5332 5328 5323 5318 5313 5309 5305 5300 5296
5666 5663 5659 5656 5653 5649 5645 5641 5637 5634 5631 5628 5624 5620 5616 5612 5607 5602 5598 5593 5588 5584 5580 5575 5570 5566 5562 5558 5555 5551 5546 5540 5536 5530 5525 5520 5515 5510 5505 5499 5494 5488 5483 5478 5473 5468 5463 5458 5453 5448 5443 5438 5434 5429 5424 5419 5414 5409 5405 5400 5396 5392 5388 5383 5379 5375 5371 5366 5362 5358 5354 5349 5345 5341 5336 5331 5326 5320 5315 5310 5305 5300 5294 5289 5285 5280
5665 5661 5658 5655 5651 5647 5643 5639 5635 5632 5628 5625 5622 5619 5614 5609 5605 5600 5595 5589 5584 5581 5577 5572 5567 5563 5558 5552 5547 5544 5540 5534 5529 5523 5517 5512 5507 5501 5496 5491 5486 5480 5475 5470 5465 5459 5454 5449 5444 5439 5434 5429 5425 5420 5415 5410 5405 5401 5396 5391 5387 5383 5379 5375 5371 5366 5362 5357 5353 5348 5344 5339 5335 5330 5324 5319 5314 5308 5302 5296 5291 5285 5279 5274 5269 5264
5664 5661 5657 5653 5650 5646 5642 5638 5634 5631 5627 5623 5620 5616 5612 5607 5602 5597 5592 5587 5582 5578 5574 5569 5563 5559 5555 5548 5542 5537 5533 5527 5522 5517 5511 5505 5499 5494 5489 5483 5478 5472 5467 5462 5456 5451 5446 5440 5435 5430 5426 5421 5416 5411 5406 5401 5397 5392 5387 5383 5379 5375 5370 5366 5362 5357 5352 5348 5343 5339 5334 5329 5324 5318 5312 5306 5301 5295 5288 5282 5276 5270 5264 5258 5252 5247
5663 5659 5656 5652 5649 5645 5641 5637 5633 5629 5625 5621 5617 5614 5610 5605 5599 5595 5589 5584 5579 5574 5571 5567 5561 5555 5551 5546 5539 5533 5528 5522 5517 5511 5505 5499 5493 5488 5482 5476 5470 5465 5459 5454 5448 5443 5438 5433 5428 5423 5418 5413 5408 5403 5398 5393 5389 5384 5379 5375 5370 5366 5361 5357 5352 5347 5343 5338 5333 5328 5323 5318 5312 5306 5300 5293 5287 5281 5274 5268 5261 5255 5249 5243 5237 5232
5662 5658 5655 5651 5647 5643 5640 5636 5632 5628 5623 5619 5615 5611 5607 5602 5597 5592 5586 5581 5577 5571 5566 5562 5558 5552 5547 5541 5535 5530 5524 5518 5512 5506 5500 5494 5488 5482 5475 5469 5463 5457 5452 5446 5441 5436 5430 5425 5420 5415 5410 5405 5400 5395 5391 5386 5381 5376 5371 5367 5362 5357 5353 5348 5343 5338 5334 5328 5323 5318 5312 5306 5300 5294 5287 5280 5274 5267 5260 5254 5247 5241 5235 5229 5224 5219
5661 5657 5653 5650 5646 5642 5638 5634 5630 5626 5621 5617 5613 5608 5604 5599 5594 5589 5583 5578 5573 5568 5563 5557 5553 5548 5543 5538 5531 5526 5519 5513 5507 5500 5494 5488 5482 5475 5469 5463 5456 5450 5444 5439 5433 5428 5422 5417 5412 5407 5403 5398 5393 5388 5383 5378 5373 5368 5364 5359 5354 5350 5344 5339 5335 5329 5324 5319 5313 5307 5301 5295 5288 5281 5274 5267 5260 5253 5247 5240 5234 5228 5223 5217 5211 5206
5659 5656 5652 5648 5644 5640 5636 5632 5627 5623 5618 5614 5610 5605 5601 5597 5592 5586 5580 5574 5569 5565 5559 5554 5548 5543 5538 5533 5527 5521 5515 5508 5502 5495 5489 5482 5475 5468 5462 5456 5450 5443 5438 5431 5426 5420 5415 5409 5405 5400 5395 5390 5385 5380 5375 5370 5365 5360 5355 5351 5346 5341 5335 5330 5325 5319 5314 5308 5302 5295 5289 5282 5276 5268 5261 5254 5247 5241 5234 5228 5222 5216 5211 5205 5200 5194
5658 5654 5650 5646 5642 5637 5633 5629 5624 5620 5615 5611 5606 5601 5597 5593 5588 5582 5576 5570 5565 5561 5556 5551 5544 5538 5532 5527 5522 5516 5510 5504 5497 5490 5484 5476 5469 5462 5456 5450 5444 5437 5431 5425 5419 5413 5408 5402 5397 5392 5388 5382 5378 5373 5368 5363 5357 5352 5347 5342 5337 5332 5326 5320 5315 5309 5303 5296 5290 5283 5276 5270 5263 5255 5248 5241 5235 5229 5223 5217 5211 5205 5200 5195 5189 5183
5656 5652 5648 5643 5639 5634 5630 5625 5621 5617 5612 5607 5602 5598 5594 5589 5584 5580 5574 5567 5561 5556 5551 5546 5540 5534 5528 5523 5517 5512 5506 5499 5492 5485 5478 5471 5464 5457 5450 5444 5437 5431 5424 5418 5412 5407 5401 5396 5391 5386 5381 5376 5371 5366 5360 5355 5350 5344 5339 5334 5329 5323 5317 5311 5305 5299 5293 5286 5279 5272 5264 5257 5250 5243 5237 5230 5224 5218 5212 5206 5200 5194 5189 5184 5178 5172
5654 5649 5645 5641 5637 5632 5628 5623 5619 5615 5610 5605 5600 5596 5591 5586 5581 5577 5572 5565 5559 5553 5548 5542 5537 5531 5526 5519 5513 5507 5502 5495 5488 5481 5473 5465 5458 5451 5444 5438 5431 5425 5419 5412 5406 5401 5395 5389 5384 5379 5374 5369 5364 5359 5353 5347 5342 5337 5331 5326 5320 5314 5307 5302 5296 5289 5283 5276 5268 5261 5253 5247 5240 5234 5227 5221 5214 5208 5202 5196 5190 5184 5178 5173 5168 5162
5651 5647 5642 5638 5634 5630 5626 5621 5616 5611 5606 5602 5597 5592 5588 5583 5579 5575 5571 5564 5557 5552 5546 5540 5534 5528 5522 5516 5509 5503 5497 5491 5484 5478 5471 5463 5455 5447 5440 5434 5427 5420 5414 5407 5401 5394 5388 5383 5378 5372 5367 5362 5357 5351 5346 5340 5335 5329 5323 5317 5311 5305 5299 5293 5287 5280 5273 5266 5258 5251 5244 5238 5232 5225 5219 5212 5206 5200 5194 5187 5181 5175 5169 5164 5160 5155
5648 5644 5640 5635 5631 5626 5622 5618 5613 5609 5605 5600 5595 5590 5585 5581 5576 5572 5569 5562 5554 5548 5542 5536 5531 5525 5518 5512 5505 5499 5492 5486 5480 5474 5469 5461 5453 5445 5437 5429 5422 5415 5409 5402 5396 5389 5383 5377 5372 5366 5361 5356 5350 5344 5339 5333 5327 5322 5316 5309 5303 5297 5290 5284 5278 5271 5264 5256 5249 5242 5235 5229 5223 5217 5210 5204 5198 5192 5186 5179 5173 5167 5162 5158 5154 5149
5646 5641 5637 5632 5627 5623 5619 5614 5610 5606 5601 5597 5592 5586 5581 5576 5571 5566 5562 5558 5551 5544 5539 5532 5526 5520 5514 5507 5501 5494 5487 5481 5473 5467 5462 5456 5448 5440 5433 5425 5417 5410 5403 5397 5390 5384 5377 5371 5365 5360 5355 5349 5344 5338 5332 5326 5320 5314 5308 5302 5296 5289 5283 5276 5269 5262 5255 5247 5240 5233 5227 5221 5215 5209 5202 5196 5190 5184 5178 5171 5166 5161 5157 5153 5149 5145
5643 5639 5634 5629 5624 5619 5615 5611 5606 5601 5597 5592 5588 5582 5577 5572 5567 5561 5556 5553 5548 5541 5535 5528 5521 5515 5509 5502 5496 5489 5482 5476 5468 5460 5454 5449 5441 5434 5428 5420 5412 5405 5398 5391 5385 5378 5371 5365 5359 5354 5348 5343 5337 5331 5325 5319 5313 5307 5301 5295 5288 5282 5275 5268 5261 5254 5246 5239 5232 5226 5220 5214 5207 5201 5195 5189 5183 5177 5170 5165 5160 5156 5152 5148 5145 5141
5641 5636 5631 5627 5622 5617 5612 5607 5602 5598 5593 5589 5584 5579 5573 5568 5563 5557 5552 5547 5542 5535 5529 5523 5516 5510 5503 5497 5491 5484 5477 5471 5465 5456 5448 5442 5435 5428 5421 5414 5407 5400 5393 5385 5379 5372 5366 5359 5353 5348 5342 5337 5331 5325 5319 5312 5306 5300 5294 5288 5281 5274 5267 5260 5253 5246 5238 5232 5225 5219 5213 5206 5200 5194 5188 5183 5176 5170 5164 5159 5155 5151 5147 5143 5140 5136
5639 5634 5629 5624 5619 5614 5610 5605 5600 5595 5590 5585 5580 5575 5570 5564 5559 5553 5547 5541 5536 5529 5523 5518 5511 5505 5499 5492 5485 5479 5472 5466 5460 5453 5445 5438 5431 5424 5417 5411 5404 5396 5389 5381 5374 5367 5360 5353 5347 5342 5336 5331 5325 5319 5312 5306 5299 5293 5287 5281 5274 5267 5260 5252 5245 5238 5231 5225 5219 5212 5205 5199 5193 5188 5182 5176 5170 5164 5158 5154 5150 5146 5143 5139 5136 5132
5636 5631 5626 5621 5617 5612 5607 5602 5598 5593 5587 5582 5577 5572 5566 5561 5555 5549 5542 5536 5531 5525 5518 5512 5506 5500 5494 5487 5481 5475 5469 5462 5456 5450 5443 5436 5429 5422 5415 5408 5401 5393 5386 5378 5370 5363 5356 5349 5342 5337 5331 5326 5320 5313 5307 5300 5294 5287 5281 5274 5267 5260 5252 5245 5238 5231 5225 5219 5212 5206 5199 5193 5187 5182 5176 5170 5164 5158 5153 5149 5145 5142 5138 5136 5132 5128
5633 5628 5623 5618 5613 5609 5604 5599 5594 5590 5584 5579 5574 5568 5562 5556 5550 5544 5538 5532 5526 5521 5515 5508 5502 5496 5490 5484 5478 5472 5466 5460 5453 5447 5441 5434 5427 5420 5412 5405 5398 5390 5382 5375 5367 5359 5352 5345 5338 5332 5326 5320 5314 5308 5302 5295 5289 5282 5276 5268 5261 5254 5246 5239 5232 5225 5219 5213 5207 5200 5194 5188 5182 5177 5171 5165 5159 5153 5149 5145 5141 5137 5134 5131 5128 5125
5629 5624 5620 5615 5610 5605 5600 5595 5589 5585 5580 5575 5569 5564 5559 5553 5547 5541 5536 5530 5523 5518 5512 5506 5499 5493 5487 5481 5475 5469 5463 5457 5450 5444 5437 5430 5423 5416 5409 5401 5394 5386 5379 5371 5363 5355 5347 5340 5334 5327 5321 5315 5309 5302 5296 5290 5283 5277 5270 5263 5256 5248 5241 5233 5226 5220 5214 5207 5201 5195 5188 5183 5177 5172 5166 5161 5155 5149 5145 5141 5137 5134 5131 5128 5125 5121
5626 5621 5616 5612 5606 5601 5596 5591 5585 5580 5576 5571 5565 5559 5554 5549 5544 5538 5532 5527 5521 5515 5508 5502 5496 5490 5484 5478 5472 5466 5459 5453 5446 5440 5433 5426 5419 5412 5405 5397 5390 5382 5374 5366 5358 5350 5343 5336 5329 5322 5316 5310 5304 5297 5291 5285 5278 5272 5265 5258 5251 5243 5235 5228 5221 5214 5208 5202 5196 5190 5184 5178 5172 5167 5161 5156 5150 5145 5141 5137 5134 5130 5127 5124 5121 5118
5624 5619 5614 5609 5604 5599 5594 5589 5583 5578 5573 5568 5564 5558 5552 5546 5541 5535 5529 5523 5518 5512 5505 5499 5493 5487 5481 5475 5469 5462 5456 5449 5443 5436 5430 5423 5415 5408 5401 5393 5385 5378 5370 5362 5354 5346 5339 5331 5324 5317 5311 5304 5298 5292 5285 5279 5273 5267 5260 5253 5245 5238 5230 5223 5216 5210 5203 5197 5191 5185 5179 5174 5168 5163 5157 5151 5145 5141 5137 5134 5130 5127 5124 5121 5118 5115
5621 5616 5611 5607 5602 5597 5592 5587 5582 5577 5571 5566 5561 5556 5550 5544 5538 5532 5527 5520 5515 5509 5503 5496 5490 5484 5478 5471 5465 5459 5452 5446 5439 5433 5426 5419 5412 5404 5397 5390 5382 5374 5367 5359 5351 5343 5335 5327 5320 5313 5306 5299 5293 5287 5280 5274 5268 5261 5255 5248 5241 5233 5226 5219 5212 5205 5199 5193 5187 5181 5175 5170 5164 5159 5153 5147 5141 5136 5132 5129 5126 5123 5120 5118 5115 5112
5618 5613 5609 5604 5599 5594 5589 5585 5579 5574 5569 5563 5558 5553 5548 5542 5536 5530 5524 5518 5512 5506 5500 5494 5487 5481 5475 5468 5462 5455 5449 5442 5436 5429 5422 5416 5408 5401 5394 5386 5379 5371 5363 5356 5348 5340 5332 5324 5317 5309 5302 5296 5289 5282 5276 5269 5263 5257 5250 5244 5237 5230 5222 5214 5208 5201 5195 5189 5183 5177 5171 5166 5161 5156 5151 5145 5139 5133 5128 5125 5122 5119 5116 5114 5112 5109
5615 5610 5605 5601 5596 5591 5586 5582 5576 5571 5566 5561 5555 5550 5544 5539 5534 5528 5522 5516 5510 5504 5498 5491 5485 5478 5471 5465 5458 5452 5446 5439 5432 5426 5419 5412 5405 5398 5391 5383 5376 5368 5361 5353 5345 5337 5329 5321 5313 5305 5298 5292 5285 5278 5271 5265 5258 5252 5246 5239 5233 5226 5218 5211 5203 5197 5191 5185 5179 5173 5167 5162 5157 5153 5148 5143 5137 5130 5125 5121 5119 5115 5111 5108 5107 5106
5611 5607 5602 5598 5593 5588 5583 5579 5574 5569 5565 5559 5554 5548 5542 5536 5531 5525 5519 5513 5507 5501 5495 5489 5483 5476 5469 5462 5455 5448 5442 5435 5429 5422 5416 5409 5402 5395 5387 5380 5372 5365 5357 5349 5341 5333 5325 5317 5309 5302 5294 5288 5281 5274 5267 5261 5254 5248 5241 5235 5228 5222 5214 5207 5200 5194 5188 5182 5176 5170 5164 5159 5154 5149 5145 5141 5136 5129 5122 5116 5113 5111 5108 5103 5100 5099
5608 5604 5599 5594 5590 5585 5579 5574 5570 5565 5561 5556 5550 5545 5539 5534 5528 5522 5516 5510 5504 5498 5492 5486 5479 5473 5466 5459 5452 5445 5438 5432 5425 5419 5412 5406 5399 5391 5384 5377 5369 5361 5353 5345 5337 5329 5321 5313 5305 5298 5291 5284 5277 5270 5263 5257 5250 5244 5237 5231 5224 5217 5211 5204 5197 5191 5185 5179 5173 5167 5162 5156 5151 5146 5142 5138 5134 5129 5123 5115 5108 5105 5104 5100 5096 5093
5605 5601 5595 5590 5586 5581 5576 5571 5566 5561 5557 5552 5547 5541 5535 5530 5524 5518 5512 5506 5500 5495 5488 5482 5475 5468 5462 5455 5448 5442 5435 5428 5421 5415 5408 5402 5395 5388 5381 5373 5366 5358 5350 5342 5334 5326 5317 5309 5301 5294 5286 5279 5273 5266 5260 5253 5247 5240 5233 5227 5220 5213 5207 5201 5194 5188 5182 5176 5170 5164 5159 5153 5148 5143 5139 5135 5131 5127 5123 5117 5110 5103 5099 5097 5094 5091